Weather in Yefremkasy

Russia / Chuvash Republic     55°42′57″N   46°49′36″E
temp.,
°C
wind,
m/s
gust,
m/s
humid.,
%
clouds,
%
prec.,
mm/h
press.,
hPa
HPBL,
m
10 may, mon
mon1000:00+11w2294100 0.0 101323
03:00+12nne1191100 0.4 101416
06:00+13ene2285100 0.3 101650
09:00+17e3475100 0.3 1017472
12:00+18n4470100 0.2 1019735
15:00+19n6667100 0.2 1021993
18:00+16n51084100 0.7 1021367
21:00+12n51095100 1.3 1023310
11 may, tue
tue1100:00+11nne71195100 0.3 1023196
03:00+10nne51096100 0.3 1024271
06:00+10ne5109495 0.0 1025250
09:00+16ne678180 0.0 1026445
12:00+20ene456592 0.0 1026729
15:00+22ene4559100 0.0 10261095
18:00+20ne3573100 0.0 102685
21:00+16ene3486100 0.6 102765
12 may, wed
wed1200:00+14ene238671 0.0 102825
03:00+13ene349253 0.0 102760
06:00+15ene498622 0.0 1027230
09:00+20e586260 0.0 1027614
12:00+22ese57525 0.0 10271574
15:00+22s675496 0.0 1026685
18:00+19se237075 0.0 102696
21:00+15e22755 0.0 102618
13 may, thu
thu1300:00+14ese227627 0.0 102615
03:00+13ese2274100 0.0 102613
06:00+15ese388165 0.0 1026210
09:00+20se6105781 0.0 1025836
12:00+22se71049100 0.0 10251401
15:00+18ese3771100 0.1 1024251
18:00+16se61378100 0.1 1023378
21:00+16ese51575100 0.2 1022358
14 may, fri
fri1400:00+15se5148099 0.1 1022316
03:00+13se4118611 0.4 1022202
06:00+15se3107958 0.0 1022302
09:00+20sse4658100 0.1 1021577
12:00+23s4654100 0.0 1020981
15:00+22ssw576482 0.0 10201084
18:00+21sw3575100 0.0 1020190
21:00+18sse1284100 0.0 102011